{"data":{"norad_id":61212,"intl_designator":"2024-171N","name":"STARLINK-11310 [DTC]","alt_names":[],"object_type":"PAYLOAD","status":"ACTIVE","operator":null,"country":"US","launch_date":"2024-09-20","launch_site_code":"AFWTR","launch_vehicle":null,"mission":null,"orbit_class":"UNKNOWN","rcs_meters":null,"size_class":null,"mass_kg":null,"dimensions":null,"purposes":["comms"],"wikipedia_slug":null,"has_3d_model":false,"image_url":null,"decayed_at":null,"tle_current":{"epoch":"2026-09-21T18:43:28.730496Z","epoch_age_seconds":81775,"freshness":"FRESH","line1":"1 61212U 24171N   26264.78019364  .00000280  00000+0  71686-5 0  9997","line2":"2 61212  53.1580 289.8453 0001256  80.1832 279.9327 15.69711531115196","mean_motion":15.69711531,"eccentricity":0.0001256,"inclination_deg":53.158,"raan_deg":289.8453,"arg_perigee_deg":80.1832,"mean_anomaly_deg":279.9327,"bstar":7.1686e-6,"rev_number":11519,"period_min":91.736600742344,"perigee_km":358.8760941506,"apogee_km":360.56864442416,"semimajor_km":6737.8593692874,"source":"CELESTRAK","updated_at":"2026-09-22T09:00:49.341395Z"}}}